Home > Time Zones > World Clock > Weather > U.S.A. > Waco > Past weeks

Flag for U.S.A. Weather past 2 weeks in Waco, Texas, U.S.A.

Now
88 °F

Scattered clouds.


Feels Like: 91 °F
Forecast: 69 / 87 °F
Wind: 7 mph from North

Location: Waco Regional Airport

Current Time: Sep 22, 2014 at 2:22:20 PM

Latest Report: Sep 22, 2014 at 1:51 PM


Visibility: 10 mi

Pressure: 30.10 "Hg

Humidity: 50%

Dew point: 67 °F

Location of WacoLocation

Historic Weather in Waco — Graph

°F

Waco temperature yesterday

Maximum temperature yesterday: 92 °F (at 3:51 PM)
Minimum temperature yesterday: 68 °F (at 4:51 AM)
Average temperature yesterday: 79 °F

Past Weeks' High & Low Weather Summary

 TemperatureHumidityPressure
High98 °F (Sep 10, 2:51 PM)100% (Sep 19, 7:51 AM)30.25 "Hg (Sep 19, 7:51 AM)
Low58 °F (Sep 13, 4:51 AM)35% (Sep 9, 2:51 PM)29.73 "Hg (Sep 10, 5:51 PM)
Average78 °F74%29.99 "Hg
* Reported Sep 7 12:51 PM — Sep 22 12:51 PM, Waco, Weather by CustomWeather, © 2014

Note: Actual official high and low records may vary slightly from our data, if they occured in-between our weather recording intervals... More about our weather records

Advertising

Waco weather history for previous 24 hours

 ConditionsComfort  
Time TempWeatherWind HumidityBarometerVisibility
12:51 PM
Sep 22
85 °FPartly sunny.N/A57%30.13 "Hg10 mi
11:51 AM84 °FScattered clouds.10 mph61%30.14 "Hg10 mi
10:51 AM81 °FOvercast.8 mph67%30.14 "Hg10 mi
9:51 AM79 °FScattered clouds.12 mph72%30.14 "Hg10 mi
8:51 AM76 °FSunny.13 mph80%30.14 "Hg10 mi
7:51 AM73 °FClear.8 mph88%30.12 "Hg9 mi
6:51 AM73 °FClear.9 mph84%30.11 "Hg10 mi
5:51 AM71 °FPassing clouds.6 mph87%30.09 "Hg10 mi
4:51 AM70 °FClear.6 mph87%30.08 "Hg10 mi
3:51 AM71 °FPassing clouds.10 mph84%30.07 "Hg10 mi
2:51 AM70 °FClear.No wind84%30.06 "Hg10 mi
1:51 AM71 °FClear.No wind81%30.06 "Hg10 mi
12:51 AM72 °FClear.No wind81%30.05 "Hg10 mi
11:51 PM
Sep 21
72 °FClear.3 mph84%30.06 "Hg10 mi
10:51 PM74 °FClear.No wind76%30.05 "Hg10 mi
9:51 PM76 °FClear.5 mph67%30.04 "Hg10 mi
8:51 PM79 °FClear.6 mph60%30.02 "Hg10 mi
7:51 PM82 °FSunny.5 mph53%30.00 "Hg10 mi
6:51 PM89 °FSunny.5 mph38%29.98 "Hg10 mi
5:51 PM92 °FPassing clouds.3 mph36%29.97 "Hg10 mi
4:51 PM92 °FSunny.6 mph36%29.98 "Hg10 mi
3:51 PM92 °FScattered clouds.5 mph37%29.99 "Hg10 mi
2:51 PM91 °FScattered clouds.6 mph41%30.01 "Hg10 mi
Weather by CustomWeather, © 2014

See weather overviewHow to use our weather pages